Location: Columbia
(38.9520°N, 92.3340°W)
Time: 18:11:54
(UTC-05:00)

Daily predictions for brighter satellites

Satellite Brightness Start Highest point End
(mag) Time Altitude Azimuth Time Altitude Azimuth Time Altitude Azimuth
Cosmos 2322 Rocket 3.4 21:03:03 10° NW 21:08:17 42° WSW 21:13:31 10° S
Cosmos 923 Rocket 4.0 21:03:24 10° NNW 21:08:37 71° ENE 21:13:46 10° SSE
FENGYUN 3A 4.1 21:03:19 10° S 21:08:41 66° WSW 21:14:06 10° NNW
Cosmos 2322 3.8 21:05:42 10° NNW 21:11:25 70° ENE 21:17:05 10° SSE
DELTA 2 R/B(2) 2.6 21:09:55 10° WSW 21:11:30 72° S 21:13:20 10° E
USA 186 2.7 21:10:01 10° SSW 21:12:05 31° W 21:14:15 10° NNW
Cosmos 2266 Rocket 4.1 21:06:23 10° S 21:12:35 65° E 21:18:43 10° NNE
Cosmos 773 Rocket 4.2 21:09:17 10° NNW 21:14:30 79° WSW 21:19:44 10° SSE
Cosmos 2360 Rocket 2.2 21:10:19 10° NNW 21:16:00 79° ENE 21:21:39 10° SSE
NOSS 3-1 (A) 3.7 21:14:15 10° S 21:19:40 42° ESE 21:25:33 10° NE
Cosmos 1553 Rocket 4.5 21:13:23 10° NNW 21:19:42 66° W 21:25:54 10° S
SL-16 R/B 3.7 21:16:12 10° NW 21:21:17 35° WSW 21:26:21 10° SSW
H-2A R/B 2.3 21:20:13 10° SSE 21:24:41 64° ENE 21:29:10 10° N
Cosmos 1437 2.7 21:23:04 10° S 21:26:20 72° E 21:29:36 10° NNE
Cosmos 2315 Rocket 4.3 21:21:13 10° N 21:27:13 50° E 21:33:12 10° SSE
OTV 4 1.7 21:25:01 10° SSW 21:27:26 23° SSE 21:29:40 11° ESE
YAOGAN 6 4.1 21:27:34 11° ESE 21:30:07 21° ENE 21:32:54 10° NNE
Cosmos 1674 3.0 21:26:28 10° SSW 21:30:17 71° W 21:34:10 10° N
Cosmos 1908 3.5 21:27:51 10° NNW 21:31:45 70° W 21:35:38 10° S
ATLAS 2AS CENTAUR R/B 3.8 21:36:03 10° SSE 21:42:02 28° ESE 21:48:24 10° NE
Cosmos 2227 Rocket 3.3 21:39:38 11° SSE 21:43:45 24° ESE 21:48:12 10° NE
ALOS 4.4 21:41:04 10° SSW 21:44:49 24° W 21:48:36 10° NW
ERBS 3.1 21:42:46 10° S 21:45:55 32° SE 21:49:04 10° ENE
ERS-1 Rocket 3.6 21:41:13 10° S 21:46:08 56° W 21:51:06 10° NNW
Cosmos 1300 3.1 21:43:21 10° N 21:47:05 47° E 21:49:47 17° SSE
CZ-4 SHROUD 3.4 21:45:24 17° SSE 21:47:34 53° ENE 21:50:38 10° N
Tiangong 1 1.3 21:44:47 10° WSW 21:47:53 70° NNW 21:50:58 10° ENE
OAO 2 Rocket 3.7 21:43:28 10° WSW 21:48:33 47° SSE 21:53:39 10° E
Envisat 3.0 21:45:40 10° SSE 21:50:44 86° WSW 21:55:51 10° NNW
ATLAS 3B R/B 4.4 21:47:49 10° NNW 21:53:09 22° NE 21:58:15 10° E
MetOp-A 4.2 21:51:21 14° SSE 21:55:52 67° ENE 22:01:12 10° N
Meteor 1-11 4.2 21:51:48 10° S 21:57:32 72° E 22:03:14 10° NNE
Cosmos 2151 3.9 21:54:44 10° SSW 21:58:47 49° W 22:02:53 10° N
SL-16 R/B 4.3 21:57:28 10° NNE 22:00:28 14° NE 22:03:28 10° E
Cosmos 2058 3.0 21:58:54 10° SSW 22:02:58 75° W 22:07:06 10° N
Cosmos 2333 Rocket 3.1 21:58:41 10° N 22:03:58 36° ENE 22:07:32 19° ESE
Delta 2 Rocket 3.3 22:00:27 10° W 22:03:59 44° S 22:05:23 28° SE
Hubble Space Telescope 2.6 22:01:59 10° SSW 22:03:43 14° S 22:03:43 14° S
NOSS 3-1 (C) 3.7 21:59:13 10° SW 22:05:02 70° NW 22:11:30 10° NNE
ARGOS 3.5 22:03:31 20° SE 22:07:03 49° ENE 22:12:13 10° N
CZ-4 R/B 4.3 22:02:33 10° NNE 22:07:12 42° E 22:10:05 20° SSE
Cosmos 1455 3.8 22:06:24 10° NNE 22:09:14 19° ENE 22:10:08 18° E
Cosmos 1937 Rocket 3.5 22:04:16 10° S 22:09:24 61° ESE 22:14:32 10° NNE
Cosmos 2297 Rocket 3.1 22:07:58 21° SE 22:10:20 28° ESE 22:15:04 10° NE
COSMOS 2455 4.5 22:09:09 10° N 22:13:51 23° NE 22:17:55 12° E
Cosmos 2219 Rocket 2.4 22:10:08 10° NNW 22:15:40 58° ENE 22:18:54 25° SE
COSMOS 2428 2.9 22:10:16 10° NNW 22:15:55 70° WSW 22:19:59 19° S
Cosmos 1726 2.1 22:12:59 10° N 22:16:47 90° WNW 22:18:49 26° S
Cosmos 990 Rocket 4.2 22:13:16 17° S 22:16:57 49° ESE 22:21:54 10° NNE
PSLV R/B 4.1 22:17:19 20° SSW 22:19:05 43° W 22:22:01 10° NNW
Cosmos 2298 Rocket 4.5 22:15:51 10° SSW 22:21:07 63° WNW 22:26:24 10° NNE
Sich 1 3.1 22:17:18 13° S 22:21:14 81° W 22:25:38 10° N
Cosmos 1862 Rocket 4.4 22:22:24 10° NNE 22:26:21 34° ENE 22:27:33 28° ESE
Cosmos 1633 Rocket 3.2 22:24:02 14° SSW 22:27:44 73° W 22:32:06 10° N
Cosmos 2242 Rocket 3.5 22:25:11 10° N 22:29:42 87° E 22:31:58 29° S
Meteor 1-4 Rocket 2.5 22:26:10 10° N 22:29:54 88° W 22:31:14 38° S
Meteor 2-10 4.3 22:24:14 10° N 22:29:57 68° E 22:33:02 28° SSE
MINOTAUR R/B 4.5 22:27:03 10° NNW 22:30:09 78° ENE 22:30:36 60° SE
CZ-4B R/B 3.6 22:25:04 10° NNE 22:30:20 81° WNW 22:35:20 11° SSW
SPOT 5 3.9 22:30:39 14° SSW 22:34:17 38° W 22:38:49 10° NNW
USA 245 2.7 22:36:59 49° W 22:36:59 49° W 22:39:08 10° NNW
Cosmos 1980 3.8 22:32:44 10° NNW 22:38:21 64° ENE 22:40:54 32° SE
Cosmos 1869 3.8 22:40:27 10° N 22:44:19 42° E 22:44:53 40° ESE
Cosmos 292 Rocket 4.0 22:39:48 10° NNW 22:44:30 64° WSW 22:46:35 32° S
IGS 5A 4.2 22:43:40 34° E 22:44:30 37° ENE 22:48:22 10° N
FALCON 9 R/B 4.1 22:17:53 10° W 22:48:16 73° S 22:54:02 20° ESE
H-2A R/B 2.3 22:46:30 35° SE 22:48:37 60° ENE 22:53:59 10° N
Cosmos 2237 Rocket 2.2 22:44:39 10° NNW 22:50:22 74° ENE 22:52:39 37° SE
Cosmos 1271 Rocket 3.4 22:47:09 10° NNW 22:50:54 50° W 22:52:15 33° SSW
DELTA 2 DEB (DPAF) 4.1 22:52:02 44° SSE 22:53:27 88° ENE 22:57:58 10° NNW
Cosmos 2082 3.7 22:49:35 13° SSW 22:54:43 86° WNW 23:00:29 10° NNE
CZ-4C R/B 2.8 22:54:41 73° S 22:55:00 88° W 22:58:29 10° NNW
Cosmos 1346 3.2 22:55:02 68° WNW 22:55:02 68° WNW 22:58:01 10° N
Landsat 7 3.7 22:53:36 43° SSE 22:55:12 85° ENE 22:59:58 10° NNW
Iridium 2 4.1 22:54:33 36° SSW 22:55:53 58° W 22:59:42 10° N
Cosmos 1626 2.0 22:56:29 64° S 22:57:02 89° E 23:00:48 10° N
Cosmos 1703 4.5 22:59:02 20° SW 23:01:13 38° WNW 23:04:54 10° N
SPOT 1/Viking Rocket 4.4 22:58:30 23° SSW 23:01:18 43° W 23:06:13 10° NNW
Cosmos 1125 Rocket 3.6 23:00:29 44° SSE 23:01:43 54° ESE 23:06:54 10° NNE
Cosmos 44 Rocket 4.2 23:03:45 34° E 23:03:45 34° E 23:07:56 10° NE
OTV 4 2.9 23:00:35 10° WSW 23:01:15 15° WSW 23:01:15 15° WSW
Terra 1.7 23:09:58 54° SSE 23:11:03 86° ENE 23:15:50 10° NNW
Okean 1-7 4.4 23:08:48 10° NNE 23:12:15 25° ENE 23:12:15 25° ENE
Cosmos 372 Rocket 4.4 23:17:21 42° ESE 23:17:25 42° ESE 23:22:20 10° NNE
Spot 4 3.8 23:21:30 61° SSE 23:22:22 86° ENE 23:27:15 10° NNW
SAR-Lupe-2 3.8 23:23:59 68° NW 23:23:59 68° NW 23:27:14 10° NNW
Tiangong 1 2.6 23:21:47 10° WNW 23:24:21 36° NNW 23:24:21 36° NNW
Cosmos 2227 Rocket 3.2 23:22:05 10° SW 23:27:28 44° WNW 23:32:53 10° N
Cosmos 1703 Rocket 3.6 23:23:28 10° N 23:27:50 64° E 23:27:50 64° E
Cosmos 1900 4.1 23:26:28 10° NNW 23:31:27 84° ENE 23:31:59 71° SE
ATLAS 2AS CENTAUR R/B 3.3 23:25:00 10° SW 23:32:25 65° NW 23:40:26 10° NNE
OAO 2 Rocket 3.6 23:27:55 10° W 23:32:37 53° SSW 23:32:37 53° SSW
Lacrosse 4 Rocket 1.5 23:35:38 10° NNW 23:40:03 81° NE 23:40:03 81° NE
ATLAS 3B R/B 2.5 23:37:51 10° NNW 23:44:51 88° WSW 23:46:35 53° SSE
Cosmos 1455 4.0 23:41:48 10° NW 23:44:54 24° W 23:45:10 23° W
Aureole 2 Rocket 4.4 23:42:05 10° N 23:43:52 23° NE 23:43:52 23° NE
SL-16 R/B 2.1 23:39:40 10° NNW 23:45:23 89° WSW 23:46:17 65° SSE
Cosmos 2074 Rocket 4.2 23:45:00 48° ESE 23:45:57 53° E 23:52:03 10° NNE
Cosmos 2221 Rocket 3.5 23:42:15 10° N 23:46:48 83° W 23:46:48 83° W
BREEZE-M DEB (TANK) 3.9 23:44:36 10° NW 23:45:53 33° NW 23:45:53 33° NW
Cosmos 2333 Rocket 3.4 23:43:07 10° NW 23:48:06 31° WSW 23:49:33 27° SW
COS B Rocket 3.6 23:44:42 10° N 23:48:12 67° NNE 23:48:12 67° NNE
Cosmos 2227 4.5 23:49:13 49° E 23:49:13 49° E 23:54:28 10° NNE
Cosmos 1709 Rocket 4.2 23:47:29 38° SW 23:49:45 62° W 23:55:48 10° N
Cosmos 1933 3.9 23:47:40 10° NNW 23:51:19 55° WNW 23:51:19 55° WNW
Cosmos 2297 Rocket 3.4 23:49:41 14° SW 23:54:10 38° WNW 23:59:26 10° N
